Regional Weather Roundup
Issued by NWS

Home | Current Version | Previous Version | Graphics & Text | Print | Product List | Glossary Off
Versions: 1 2 3 4 5 6 7 8 9 10 11 12 13 14 15 16 17 18 19 20 21 22 23 24 25 26 27 28 29 30 31 32 33 34 35 36 37 38 39 40 41 42 43 44 45 46 47 48 49 50

000
ASUS44 KMEG 232210
RWRTN
TENNESSEE HOURLY STATE WEATHER ROUNDUP
NATIONAL WEATHER SERVICE MEMPHIS TN
500 PM CDT WED MAY 23 2018

TNZ002-004-019-021-049-052-054-088>092-232300-
WEST TENNESSEE

CITY           SKY/WX    TMP DP  RH WIND       PRES   REMARKS
MEMPHIS INTL   PTSUNNY   86  67  52 SE5       30.04F
NWS MEMPHIS      N/A     87 N/A N/A MISG        N/A
JACKSON        FAIR      88  68  51 E5        30.05S HX  91
DYERSBURG      FAIR      87  70  56 VRB3      30.06S HX  92
COVINGTON      SUNNY     88  70  55 E7        30.04F HX  92
BOLIVAR        SUNNY     86  68  54 E3        30.04F
PARIS          SUNNY     86  66  51 E8        30.07S
HUNTINGDON     SUNNY     86  66  51 NE5       30.06S
LEXINGTON      SUNNY     86  66  51 VRB6      30.06R
SELMER         SUNNY     88  66  48 NE6       30.05S HX  90
SAVANNAH       SUNNY     88  68  51 N3        30.04S HX  91
$$

TNZ008-025-027-028-033-062-065-066-232300-
NORTH MIDDLE TENNESSEE

CITY           SKY/WX    TMP DP  RH WIND       PRES   REMARKS
NASHVILLE      PTSUNNY   87  62  43 NE8       30.06S
DICKSON        MOCLDY    84  64  51 N3G13     30.07S
PORTLAND       SUNNY     82  63  51 NE8       30.08R
CLARKSVILLE    FAIR      86  64  47 N8        30.07R
SMYRNA         FAIR      88  65  46 VRB7      30.06S HX  90
MURFREESBORO   PTCLDY    88  61  40 N10       30.04R
COOKEVILLE     MOSUNNY   84  64  51 N6G12     30.06S
LIVINGSTON     CLEAR     81  64  57 N7        30.08S
GALLATIN       SUNNY     86  61  42 N9        30.09S
CROSSVILLE     FAIR      81  61  50 N8        30.11S
ROCKWOOD       CLEAR     81  64  57 N9        30.09R
$$

TNZ061-075-076-078-094-096-097-232300-
SOUTH MIDDLE TENNESSEE

CITY           SKY/WX    TMP DP  RH WIND       PRES   REMARKS
LEWISBURG      CLEAR     86  64  48 N6        30.05S
FAYETTEVILLE   MOSUNNY   84  66  54 N7        30.05F
TULLAHOMA      SUNNY     84  66  54 N6        30.06S
WINCHESTER     MOSUNNY   86  64  48 N6G13     30.05S
MCMINNVILLE    SUNNY     86  63  45 MISG      30.06S
COLUMBIA       SUNNY     88  61  40 VRB3      30.04S
SHELBYVILLE    SUNNY     86  63  45 N8        30.05S
$$

TNZ017-018-042-046-047-232300-
NORTHEAST TENNESSEE

CITY           SKY/WX    TMP DP  RH WIND       PRES   REMARKS
TRI CITIES     FAIR      83  66  56 CALM      30.07F
ELIZABETHTON   FAIR      81  64  57 CALM      30.08S
GREENEVILLE    PTCLDY    81  63  54 N7        30.08S
$$

TNZ012-013-036-069-073-074-232300-
CENTRAL EAST TENNESSEE

CITY           SKY/WX    TMP DP  RH WIND       PRES   REMARKS
KNOXVILLE      PTSUNNY   85  65  51 NE6       30.04S
OAK RIDGE      FAIR      84  68  58 VRB3      30.06S
DOWNTOWN KNOXV PTSUNNY   84  66  54 CALM      30.04S
GATLINBURG     SUNNY     84  63  48 N8        30.04S
MORRISTOWN     SUNNY     82  64  54 N6        30.06S
JACKSBORO      SUNNY     84  59  42 NE9G16    30.09S
$$

TNZ083-085-099-232300-
SOUTHEAST TENNESSEE

CITY           SKY/WX    TMP DP  RH WIND       PRES   REMARKS
CHATTANOOGA    PTSUNNY   88  64  44 VRB5      30.03S
DAYTON         PTCLDY    84  72  65 CALM      30.03R
$$

SKY/WX REPORTED AS FAIR MEANS FEW OR NO CLOUDS BELOW
12 THOUSAND FEET.





USA.gov is the U.S. government's official web portal to all federal, state and local government web resources and services.